Location: Unspecified
(0.0000°N, 0.0000°E)
Time: 11:04:39
(UTC+00:00)

Envisat - Pass Details

Date: 22 March 2019
Orbit: 764 x 766 km, 98.2° (Epoch: 24 March)

Event Time Altitude Azimuth Distance (km) Brightness Sun altitude
Rises 20:05:13 0° 201° (SSW) 3,230 6.5 -29.6°
Reaches altitude 10° 20:08:30 10° 223° (SW) 2,301 5.9 -30.4°
Maximum altitude 20:11:19 15° 257° (WSW) 1,969 5.9 -31.1°
Drops below altitude 10° 20:14:08 10° 292° (WNW) 2,295 6.2 -31.8°
Sets 20:17:25 0° 314° (NW) 3,217 6.8 -32.6°
